JA145P RJSN-RJAF

Flight info

Callsign JA145P
Flight time 0h 29m
Altitude 20000
Route GTC PAPNA AF857/N0418F230 AF858
Aircraft E55P/M-SBDFGHJ2RWY/LB2

Departure

Time 2026-04-21 15:44
Airport Niigata Airport (RJSN)

Arrival

Time 2026-04-21 16:13
Airport Shinshu-Matsumoto Airport (RJAF)
Time Latitude Longitude Altitude Speed Heading
2026-04-21 15:27 37.95329 139.11084 4 ft 0 kts 182°
2026-04-21 15:38 37.95325 139.11083 4 ft 2 kts 204°
2026-04-21 15:38 37.95341 139.11066 4 ft 7 kts
2026-04-21 15:39 37.95423 139.11070 2 ft 14 kts
2026-04-21 15:39 37.95462 139.11118 3 ft 9 kts 93°
2026-04-21 15:39 37.95458 139.11223 4 ft 15 kts 94°
2026-04-21 15:39 37.95452 139.11386 4 ft 21 kts 92°
2026-04-21 15:40 37.95446 139.11575 4 ft 17 kts 91°
2026-04-21 15:40 37.95496 139.11682 4 ft 15 kts 32°
2026-04-21 15:40 37.95592 139.11760 4 ft 12 kts 38°
2026-04-21 15:40 37.95631 139.11795 4 ft 6 kts 24°
2026-04-21 15:41 37.95686 139.11833 4 ft 12 kts 32°
2026-04-21 15:41 37.95692 139.11839 4 ft 1 kts 33°
2026-04-21 15:41 37.95734 139.11873 4 ft 12 kts 32°
2026-04-21 15:41 37.95827 139.11946 4 ft 18 kts 32°
2026-04-21 15:42 37.95909 139.12032 4 ft 12 kts 69°
2026-04-21 15:42 37.95887 139.12134 4 ft 13 kts 122°
2026-04-21 15:42 37.95868 139.12172 4 ft 0 kts 122°
2026-04-21 15:42 37.95867 139.12174 4 ft 1 kts 122°
2026-04-21 15:43 37.95845 139.12212 4 ft 9 kts 131°
2026-04-21 15:43 37.95810 139.12239 4 ft 0 kts 213°
2026-04-21 15:44 37.95501 139.11995 4 ft 115 kts 211°
2026-04-21 15:44 37.94637 139.11282 449 ft 168 kts 214°
2026-04-21 15:44 37.93673 139.10471 1461 ft 172 kts 216°
2026-04-21 15:44 37.92710 139.09670 2565 ft 170 kts 218°
2026-04-21 15:45 37.91742 139.08841 3513 ft 175 kts 218°
2026-04-21 15:45 37.90657 139.07916 3955 ft 209 kts 219°
2026-04-21 15:45 37.89405 139.06860 4580 ft 231 kts 218°
2026-04-21 15:45 37.88067 139.05748 5555 ft 237 kts 219°
2026-04-21 15:46 37.86681 139.04585 6570 ft 241 kts 219°
2026-04-21 15:46 37.85307 139.03427 7560 ft 245 kts 219°
2026-04-21 15:46 37.83888 139.02239 8476 ft 252 kts 219°
2026-04-21 15:46 37.82424 139.01018 9496 ft 254 kts 220°
2026-04-21 15:47 37.80972 138.99795 10398 ft 260 kts 219°
2026-04-21 15:47 37.79470 138.98546 11431 ft 261 kts 220°
2026-04-21 15:47 37.77954 138.97276 12374 ft 264 kts 221°
2026-04-21 15:47 37.76451 138.96025 13291 ft 267 kts 222°
2026-04-21 15:48 37.74912 138.94736 14248 ft 268 kts 223°
2026-04-21 15:48 37.73365 138.93443 15161 ft 269 kts 224°
2026-04-21 15:48 37.71851 138.92181 16175 ft 264 kts 225°
2026-04-21 15:48 37.70314 138.90897 16958 ft 268 kts 226°
2026-04-21 15:49 37.68764 138.89609 17781 ft 269 kts 226°
2026-04-21 15:49 37.67209 138.88309 18645 ft 267 kts 226°
2026-04-21 15:49 37.65697 138.87045 19488 ft 265 kts 227°
2026-04-21 15:49 37.64110 138.85721 20020 ft 274 kts 227°
2026-04-21 15:50 37.62527 138.84398 20674 ft 278 kts 227°
2026-04-21 15:50 37.60944 138.83084 21509 ft 273 kts 228°
2026-04-21 15:50 37.59381 138.81784 21979 ft 281 kts 228°
2026-04-21 15:50 37.57690 138.80359 22061 ft 302 kts 227°
2026-04-21 15:51 37.55872 138.78851 22079 ft 322 kts 226°
2026-04-21 15:51 37.53936 138.77249 22076 ft 341 kts 226°
2026-04-21 15:51 37.51878 138.75539 22085 ft 355 kts 225°
2026-04-21 15:51 37.49849 138.73865 22056 ft 351 kts 225°
2026-04-21 15:52 37.47813 138.72182 22059 ft 349 kts 225°
2026-04-21 15:52 37.45794 138.70517 22057 ft 349 kts 224°
2026-04-21 15:52 37.43756 138.68829 22077 ft 353 kts 224°
2026-04-21 15:52 37.41673 138.67102 22074 ft 358 kts 225°
2026-04-21 15:53 37.39583 138.65387 22074 ft 362 kts 224°
2026-04-21 15:53 37.37461 138.63620 22076 ft 362 kts 224°
2026-04-21 15:53 37.35387 138.61923 22068 ft 357 kts 224°
2026-04-21 15:53 37.33302 138.60205 22054 ft 353 kts 224°
2026-04-21 15:54 37.31264 138.58524 22068 ft 351 kts 225°
2026-04-21 15:54 37.29199 138.56828 22073 ft 355 kts 225°
2026-04-21 15:54 37.27144 138.55122 22079 ft 361 kts 224°
2026-04-21 15:54 37.25024 138.53378 22067 ft 364 kts 224°
2026-04-21 15:55 37.22886 138.51627 21936 ft 367 kts 224°
2026-04-21 15:55 37.20787 138.49907 21606 ft 354 kts 224°
2026-04-21 15:55 37.18797 138.48286 21251 ft 329 kts 225°
2026-04-21 15:55 37.16895 138.46722 20872 ft 333 kts 225°
2026-04-21 15:56 37.14931 138.45093 20491 ft 339 kts 224°
2026-04-21 15:56 37.12938 138.43463 20122 ft 343 kts 225°
2026-04-21 15:56 37.10962 138.41859 19749 ft 341 kts 224°
2026-04-21 15:56 37.08991 138.40231 19362 ft 335 kts 224°
2026-04-21 15:57 37.07053 138.38663 18979 ft 329 kts 224°
2026-04-21 15:57 37.05149 138.37097 18597 ft 328 kts 224°
2026-04-21 15:57 37.03245 138.35550 18223 ft 329 kts 223°
2026-04-21 15:57 37.01301 138.33952 17858 ft 332 kts 222°
2026-04-21 15:58 36.99358 138.32382 17506 ft 334 kts 223°
2026-04-21 15:58 36.97410 138.30785 17163 ft 335 kts 223°
2026-04-21 15:58 36.95459 138.29201 16805 ft 337 kts 222°
2026-04-21 15:58 36.93508 138.27603 16455 ft 339 kts 222°
2026-04-21 15:59 36.91534 138.26000 16105 ft 339 kts 221°
2026-04-21 15:59 36.89552 138.24391 15752 ft 339 kts 221°
2026-04-21 15:59 36.87571 138.22783 15397 ft 340 kts 221°
2026-04-21 15:59 36.85584 138.21175 15038 ft 340 kts 221°
2026-04-21 16:00 36.83587 138.19540 14673 ft 339 kts 221°
2026-04-21 16:00 36.81630 138.17956 14299 ft 339 kts 220°
2026-04-21 16:00 36.79645 138.16348 13925 ft 340 kts 220°
2026-04-21 16:00 36.77663 138.14743 13549 ft 339 kts 220°
2026-04-21 16:01 36.75680 138.13138 13169 ft 338 kts 220°
2026-04-21 16:01 36.73726 138.11562 12803 ft 336 kts 220°
2026-04-21 16:01 36.71764 138.09963 12415 ft 324 kts 219°
2026-04-21 16:01 36.69979 138.08540 12056 ft 293 kts 219°
2026-04-21 16:02 36.68308 138.07196 11708 ft 276 kts 220°
2026-04-21 16:02 36.66746 138.05936 11365 ft 262 kts 220°
2026-04-21 16:02 36.65224 138.04700 11031 ft 261 kts 219°
2026-04-21 16:02 36.63713 138.03476 10913 ft 258 kts 219°
2026-04-21 16:03 36.62103 138.02483 10886 ft 267 kts 197°
2026-04-21 16:03 36.60221 138.02643 10821 ft 281 kts 172°
2026-04-21 16:03 36.58303 138.03133 10681 ft 280 kts 176°
2026-04-21 16:03 36.56373 138.03560 10533 ft 282 kts 175°
2026-04-21 16:04 36.54398 138.03984 10382 ft 292 kts 175°
2026-04-21 16:04 36.52375 138.04410 10253 ft 296 kts 175°
2026-04-21 16:04 36.50323 138.04857 10118 ft 300 kts 175°
2026-04-21 16:04 36.48259 138.05295 9973 ft 302 kts 174°
2026-04-21 16:05 36.46175 138.05739 9866 ft 303 kts 174°
2026-04-21 16:05 36.44113 138.06184 9771 ft 293 kts 175°
2026-04-21 16:05 36.42160 138.06596 9656 ft 281 kts 175°
2026-04-21 16:05 36.40249 138.07010 9553 ft 274 kts 174°
2026-04-21 16:06 36.38383 138.07397 9449 ft 269 kts 174°
2026-04-21 16:06 36.36548 138.07796 9332 ft 272 kts 175°
2026-04-21 16:06 36.34576 138.08206 9272 ft 302 kts 174°
2026-04-21 16:06 36.32391 138.08668 9198 ft 329 kts 173°
2026-04-21 16:07 36.30248 138.09128 9090 ft 303 kts 174°
2026-04-21 16:07 36.28231 138.09563 8946 ft 280 kts 174°
2026-04-21 16:07 36.26363 138.09961 8803 ft 267 kts 174°
2026-04-21 16:07 36.24517 138.10347 8672 ft 269 kts 174°
2026-04-21 16:08 36.20834 138.11131 8274 ft 264 kts 174°
2026-04-21 16:08 36.19049 138.11504 7921 ft 255 kts 173°
2026-04-21 16:08 36.17344 138.11783 7567 ft 244 kts 183°
2026-04-21 16:09 36.15683 138.11556 7222 ft 234 kts 195°
2026-04-21 16:09 36.14177 138.10933 6871 ft 227 kts 206°
2026-04-21 16:09 36.12810 138.09981 6543 ft 220 kts 216°
2026-04-21 16:09 36.11646 138.08780 6352 ft 219 kts 226°
2026-04-21 16:10 36.10699 138.07367 5870 ft 214 kts 236°
2026-04-21 16:10 36.09985 138.05772 5059 ft 208 kts 246°
2026-04-21 16:10 36.09537 138.04182 4902 ft 191 kts 255°
2026-04-21 16:10 36.09307 138.02515 4915 ft 196 kts 264°
2026-04-21 16:11 36.09299 138.00868 4705 ft 194 kts 273°
2026-04-21 16:11 36.09515 137.99217 4326 ft 197 kts 283°
2026-04-21 16:11 36.09935 137.97606 4042 ft 196 kts 288°
2026-04-21 16:11 36.10354 137.96056 3788 ft 181 kts 286°
2026-04-21 16:12 36.10622 137.95126 3624 ft 167 kts 294°
2026-04-21 16:12 36.11575 137.93723 3350 ft 155 kts 323°
2026-04-21 16:12 36.12485 137.93115 3043 ft 147 kts 341°
2026-04-21 16:12 36.13456 137.92877 2794 ft 139 kts 353°
2026-04-21 16:13 36.14410 137.92715 2570 ft 141 kts 351°
2026-04-21 16:13 36.15358 137.92522 2323 ft 135 kts 352°
2026-04-21 16:13 36.16248 137.92349 2172 ft 121 kts 352°
2026-04-21 16:13 36.16796 137.92244 2172 ft 41 kts 352°
2026-04-21 16:14 36.17059 137.92189 2173 ft 32 kts 351°
2026-04-21 16:14 36.17176 137.92181 2173 ft 10 kts 18°
2026-04-21 16:14 36.17173 137.92163 2173 ft 11 kts 169°
2026-04-21 16:14 36.17021 137.92197 2172 ft 30 kts 171°
2026-04-21 16:15 36.16797 137.92239 2172 ft 32 kts 169°
2026-04-21 16:15 36.16580 137.92284 2172 ft 27 kts 172°
2026-04-21 16:15 36.16444 137.92313 2172 ft 9 kts 163°
2026-04-21 16:15 36.16417 137.92381 2172 ft 11 kts 83°
2026-04-21 16:16 36.16430 137.92484 2172 ft 11 kts 81°
2026-04-21 16:16 36.16441 137.92569 2172 ft 4 kts 82°
2026-04-21 16:16 36.16442 137.92574 2172 ft 0 kts 81°